Year,Month,Day,Hour,Minute,Value (Times are PST for temperature in C)
2018,11,26,00,00,10.10
2018,11,26,00,01,10.10
2018,11,26,00,02,10.10
2018,11,26,00,03,10.10
2018,11,26,00,04,10.10
2018,11,26,00,05,10.10
2018,11,26,00,06,10.10
2018,11,26,00,07,10.10
2018,11,26,00,08,10.10
2018,11,26,00,09,10.10
2018,11,26,00,10,10.10
2018,11,26,00,11,10.10
2018,11,26,00,12,10.10
2018,11,26,00,13,10.10
2018,11,26,00,14,10.10
2018,11,26,00,15,10.10
2018,11,26,00,16,10.10
2018,11,26,00,17,10.10
2018,11,26,00,18,10.10
2018,11,26,00,19,10.10
2018,11,26,00,20,10.20
2018,11,26,00,21,10.20
2018,11,26,00,22,10.20
2018,11,26,00,23,10.20
2018,11,26,00,24,10.10
2018,11,26,00,25,10.20
2018,11,26,00,26,10.20
2018,11,26,00,27,10.20
2018,11,26,00,28,10.20
2018,11,26,00,29,10.20
2018,11,26,00,30,10.20
2018,11,26,00,31,10.20
2018,11,26,00,32,10.20
2018,11,26,00,33,10.20
2018,11,26,00,34,10.20
2018,11,26,00,35,10.20
2018,11,26,00,36,10.20
2018,11,26,00,37,10.20
2018,11,26,00,38,10.20
2018,11,26,00,39,10.20
2018,11,26,00,40,10.20
2018,11,26,00,41,10.20
2018,11,26,00,42,10.20
2018,11,26,00,43,10.20
2018,11,26,00,44,10.20
2018,11,26,00,45,10.20
2018,11,26,00,46,10.20
2018,11,26,00,47,10.20
2018,11,26,00,48,10.20
2018,11,26,00,49,10.20
2018,11,26,00,50,10.30
2018,11,26,00,51,10.20
2018,11,26,00,52,10.20
2018,11,26,00,53,10.30
2018,11,26,00,54,10.20
2018,11,26,00,55,10.30
2018,11,26,00,56,10.30
2018,11,26,00,57,10.30
2018,11,26,00,58,10.30
2018,11,26,00,59,10.30
2018,11,26,01,00,10.30
2018,11,26,01,01,10.30
2018,11,26,01,02,10.30
2018,11,26,01,03,10.30
2018,11,26,01,04,10.30
2018,11,26,01,05,10.30
2018,11,26,01,06,10.30
2018,11,26,01,07,10.30
2018,11,26,01,08,10.30
2018,11,26,01,09,10.30
2018,11,26,01,10,10.30
2018,11,26,01,11,10.30
2018,11,26,01,12,10.40
2018,11,26,01,13,10.40
2018,11,26,01,14,10.40
2018,11,26,01,15,10.40
2018,11,26,01,16,10.40
2018,11,26,01,17,10.40
2018,11,26,01,18,10.40
2018,11,26,01,19,10.40
2018,11,26,01,20,10.40
2018,11,26,01,21,10.40
2018,11,26,01,22,10.40
2018,11,26,01,23,10.40
2018,11,26,01,24,10.40
2018,11,26,01,25,10.40
2018,11,26,01,26,10.40
2018,11,26,01,27,10.40
2018,11,26,01,28,10.40
2018,11,26,01,29,10.40
2018,11,26,01,30,10.40
2018,11,26,01,31,10.40
2018,11,26,01,32,10.40
2018,11,26,01,33,10.40
2018,11,26,01,34,10.40
2018,11,26,01,35,10.40
2018,11,26,01,36,10.40
2018,11,26,01,37,10.40
2018,11,26,01,38,10.40
2018,11,26,01,39,10.40
2018,11,26,01,40,10.40
2018,11,26,01,41,10.40
2018,11,26,01,42,10.40
2018,11,26,01,43,10.40
2018,11,26,01,44,10.40
2018,11,26,01,45,10.40
2018,11,26,01,46,10.30
2018,11,26,01,47,10.30
2018,11,26,01,48,10.30
2018,11,26,01,49,10.30
2018,11,26,01,50,10.30
2018,11,26,01,51,10.30
2018,11,26,01,52,10.30
2018,11,26,01,53,10.30
2018,11,26,01,54,10.30
2018,11,26,01,55,10.30
2018,11,26,08,29,9.90
2018,11,26,08,30,9.90
2018,11,26,08,31,9.90
2018,11,26,08,32,9.90
2018,11,26,08,33,9.90
2018,11,26,08,34,9.90
2018,11,26,08,35,9.90
2018,11,26,08,36,9.90
2018,11,26,08,37,9.90
2018,11,26,08,38,9.90
2018,11,26,08,39,9.90
2018,11,26,08,40,9.90
2018,11,26,08,41,9.90
2018,11,26,08,42,9.90
2018,11,26,08,43,9.90
2018,11,26,08,44,9.90
2018,11,26,08,45,9.90
2018,11,26,08,46,9.90
2018,11,26,08,47,10.00
2018,11,26,08,48,10.00
2018,11,26,08,49,10.00
2018,11,26,08,50,10.00
2018,11,26,08,51,10.10
2018,11,26,08,52,10.10
2018,11,26,08,53,10.10
2018,11,26,08,54,10.10
2018,11,26,08,55,10.10
2018,11,26,08,56,10.20
2018,11,26,08,57,10.20
2018,11,26,08,58,10.20
2018,11,26,08,59,10.20
2018,11,26,09,00,10.20
2018,11,26,09,01,10.20
2018,11,26,09,02,10.30
2018,11,26,09,03,10.30
2018,11,26,09,04,10.30
2018,11,26,09,05,10.30
2018,11,26,09,06,10.30
2018,11,26,09,07,10.30
2018,11,26,09,08,10.30
2018,11,26,09,09,10.30
2018,11,26,09,10,10.30
2018,11,26,09,11,10.30
2018,11,26,09,12,10.30
2018,11,26,09,13,10.30
2018,11,26,09,14,10.30
2018,11,26,09,15,10.30
2018,11,26,09,16,10.30
2018,11,26,09,17,10.30
2018,11,26,09,18,10.40
2018,11,26,09,19,10.40
2018,11,26,09,20,10.40
2018,11,26,09,21,10.40
2018,11,26,09,22,10.40
2018,11,26,09,23,10.40
2018,11,26,09,24,10.40
2018,11,26,09,25,10.40
2018,11,26,09,26,10.50
2018,11,26,09,27,10.50
2018,11,26,09,28,10.50
2018,11,26,09,29,10.60
2018,11,26,09,30,10.60
2018,11,26,09,31,10.60
2018,11,26,09,32,10.60
2018,11,26,09,33,10.70
2018,11,26,09,34,10.70
2018,11,26,09,35,10.70
2018,11,26,09,36,10.70
2018,11,26,09,37,10.70
2018,11,26,09,38,10.80
2018,11,26,09,39,10.80
2018,11,26,09,40,10.80
2018,11,26,09,41,10.80
2018,11,26,09,42,10.80
2018,11,26,09,43,10.90
2018,11,26,09,44,10.90
2018,11,26,09,45,10.90
2018,11,26,09,46,10.90
2018,11,26,09,47,10.90
2018,11,26,09,48,11.00
2018,11,26,09,49,11.00
2018,11,26,09,50,11.00
2018,11,26,09,51,11.00
2018,11,26,09,52,11.00
2018,11,26,09,53,11.00
2018,11,26,09,54,11.10
2018,11,26,09,55,11.10
2018,11,26,09,56,11.10
2018,11,26,09,57,11.10
2018,11,26,09,58,11.10
2018,11,26,09,59,11.10
2018,11,26,10,00,11.10
2018,11,26,10,01,11.10
2018,11,26,10,02,11.20
2018,11,26,10,03,11.20
2018,11,26,10,04,11.20
2018,11,26,10,05,11.20
2018,11,26,10,06,11.20
2018,11,26,10,07,11.20
2018,11,26,10,08,11.20
2018,11,26,10,09,11.20
2018,11,26,10,10,11.20
2018,11,26,10,11,11.20
2018,11,26,10,12,11.20
2018,11,26,10,13,11.20
2018,11,26,10,14,11.20
2018,11,26,10,15,11.20
2018,11,26,10,16,11.20
2018,11,26,10,17,11.20
2018,11,26,10,18,11.20
2018,11,26,10,19,11.20
2018,11,26,10,20,11.20
2018,11,26,10,21,11.20
2018,11,26,10,22,11.20
2018,11,26,10,23,11.20
2018,11,26,10,24,11.20
2018,11,26,10,25,11.20
2018,11,26,10,26,11.20
2018,11,26,10,27,11.20
2018,11,26,10,28,11.20
2018,11,26,10,29,11.20
2018,11,26,10,30,11.20
2018,11,26,10,31,11.20
2018,11,26,10,32,11.20
2018,11,26,10,33,11.20
2018,11,26,10,34,11.30
2018,11,26,10,35,11.30
2018,11,26,10,36,11.30
2018,11,26,10,37,11.30
2018,11,26,10,38,11.30
2018,11,26,10,39,11.30
2018,11,26,10,40,11.30
2018,11,26,10,41,11.30
2018,11,26,10,42,11.40
2018,11,26,10,43,11.40
2018,11,26,10,44,11.40
2018,11,26,10,45,11.40
2018,11,26,10,46,11.40
2018,11,26,10,47,11.40
2018,11,26,10,48,11.40
2018,11,26,10,49,11.50
2018,11,26,10,50,11.50
2018,11,26,10,51,11.50
2018,11,26,10,52,11.50
2018,11,26,10,53,11.50
2018,11,26,10,54,11.50
2018,11,26,10,55,11.60
2018,11,26,10,56,11.60
2018,11,26,10,57,11.60
2018,11,26,10,58,11.60
2018,11,26,10,59,11.60
2018,11,26,11,00,11.60
2018,11,26,11,01,11.60
2018,11,26,11,02,11.60
2018,11,26,11,03,11.60
2018,11,26,11,04,11.60
2018,11,26,11,05,11.60
2018,11,26,11,06,11.60
2018,11,26,11,07,11.60
2018,11,26,11,08,11.60
2018,11,26,11,09,11.60
2018,11,26,11,10,11.50
2018,11,26,11,11,11.50
2018,11,26,11,12,11.50
2018,11,26,11,13,11.50
2018,11,26,11,14,11.50
2018,11,26,11,15,11.50
2018,11,26,11,16,11.50
2018,11,26,11,17,11.50
2018,11,26,11,18,11.50
2018,11,26,11,19,11.50
2018,11,26,11,20,11.50
2018,11,26,11,21,11.40
2018,11,26,11,22,11.40
2018,11,26,11,23,11.40
2018,11,26,11,24,11.40
2018,11,26,11,25,11.40
2018,11,26,11,26,11.40
2018,11,26,11,27,11.40
2018,11,26,11,28,11.40
2018,11,26,11,29,11.40
2018,11,26,11,30,11.40
2018,11,26,11,31,11.40
2018,11,26,11,32,11.40
2018,11,26,11,33,11.40
2018,11,26,11,34,11.40
2018,11,26,11,35,11.40
2018,11,26,11,36,11.40
2018,11,26,11,37,11.30
2018,11,26,11,38,11.30
2018,11,26,11,39,11.30
2018,11,26,11,40,11.30
2018,11,26,11,41,11.30
2018,11,26,11,42,11.30
2018,11,26,11,43,11.30
2018,11,26,11,44,11.30
2018,11,26,11,45,11.30
2018,11,26,11,46,11.30
2018,11,26,11,47,11.30
2018,11,26,11,48,11.30
2018,11,26,11,49,11.30
2018,11,26,11,50,11.30
2018,11,26,11,51,11.30
2018,11,26,11,52,11.30
2018,11,26,11,53,11.30
2018,11,26,11,54,11.30
2018,11,26,11,55,11.30
2018,11,26,11,56,11.30
2018,11,26,11,57,11.30
2018,11,26,11,58,11.30
2018,11,26,11,59,11.20
2018,11,26,12,00,11.20
2018,11,26,12,01,11.20
2018,11,26,12,02,11.20
2018,11,26,12,03,11.20
2018,11,26,12,04,11.20
2018,11,26,12,05,11.20
2018,11,26,12,06,11.20
2018,11,26,12,07,11.20
2018,11,26,12,08,11.20
2018,11,26,12,09,11.20
2018,11,26,12,10,11.20
2018,11,26,12,11,11.20
2018,11,26,12,12,11.20
2018,11,26,12,13,11.20
2018,11,26,12,14,11.20
2018,11,26,12,15,11.20
2018,11,26,12,16,11.10
2018,11,26,12,17,11.10
2018,11,26,12,18,11.10
2018,11,26,12,19,11.10
2018,11,26,12,20,11.10
2018,11,26,12,21,11.10
2018,11,26,12,22,11.10
2018,11,26,12,23,11.10
2018,11,26,12,24,11.10
2018,11,26,12,25,11.10
2018,11,26,12,26,11.10
2018,11,26,12,27,11.10
2018,11,26,12,28,11.10
2018,11,26,12,29,11.10
2018,11,26,12,30,11.10
2018,11,26,12,31,11.00
2018,11,26,12,32,11.00
2018,11,26,12,33,11.00
2018,11,26,12,34,11.00
2018,11,26,12,35,11.00
2018,11,26,12,36,11.00
2018,11,26,12,37,11.00
2018,11,26,12,38,10.90
2018,11,26,12,39,10.90
2018,11,26,12,40,10.90
2018,11,26,12,41,10.90
2018,11,26,12,42,10.90
2018,11,26,12,43,10.90
2018,11,26,12,44,10.90
2018,11,26,12,45,10.90
2018,11,26,12,46,10.90
2018,11,26,12,47,10.90
2018,11,26,12,48,10.90
2018,11,26,12,49,10.90
2018,11,26,12,50,10.90
2018,11,26,12,51,10.90
2018,11,26,12,52,10.90
2018,11,26,12,53,10.90
2018,11,26,12,54,10.90
2018,11,26,12,55,10.90
2018,11,26,12,56,10.90
2018,11,26,12,57,10.90
2018,11,26,12,58,10.90
2018,11,26,12,59,10.90
2018,11,26,13,00,10.90
2018,11,26,13,01,10.80
2018,11,26,13,02,10.80
2018,11,26,13,03,10.80
2018,11,26,13,04,10.90
2018,11,26,13,05,10.90
2018,11,26,13,06,10.90
2018,11,26,13,07,10.90
2018,11,26,13,08,10.90
2018,11,26,13,09,10.90
2018,11,26,13,10,10.90
2018,11,26,13,11,10.90
2018,11,26,13,12,10.90
2018,11,26,13,13,10.90
2018,11,26,13,14,11.00
2018,11,26,13,15,11.00
2018,11,26,13,16,11.00
2018,11,26,13,17,11.00
2018,11,26,13,18,11.00
2018,11,26,13,19,11.00
2018,11,26,13,20,11.00
2018,11,26,13,21,11.00
2018,11,26,13,22,11.00
2018,11,26,13,23,11.00
2018,11,26,13,24,11.00
2018,11,26,13,25,11.00
2018,11,26,13,26,11.00
2018,11,26,13,27,11.00
2018,11,26,13,28,11.00
2018,11,26,13,29,11.00
2018,11,26,13,30,11.00
2018,11,26,13,31,11.00
2018,11,26,13,32,11.00
2018,11,26,13,33,11.00
2018,11,26,13,34,11.00
2018,11,26,13,35,11.00
2018,11,26,13,36,11.00
2018,11,26,13,37,11.00
2018,11,26,13,38,11.10
2018,11,26,13,39,11.10
2018,11,26,13,40,11.10
2018,11,26,13,41,11.10
2018,11,26,13,42,11.10
2018,11,26,13,43,11.10
2018,11,26,13,44,11.10
2018,11,26,13,45,11.10
2018,11,26,13,46,11.10
2018,11,26,13,47,11.10
2018,11,26,13,48,11.10
2018,11,26,13,49,11.20
2018,11,26,13,50,11.20
2018,11,26,13,51,11.20
2018,11,26,13,52,11.20
2018,11,26,13,53,11.20
2018,11,26,13,54,11.20
2018,11,26,13,55,11.20
2018,11,26,13,56,11.20
2018,11,26,13,57,11.20
2018,11,26,13,58,11.20
2018,11,26,13,59,11.20
2018,11,26,14,00,11.20
2018,11,26,14,01,11.20
2018,11,26,14,02,11.20
2018,11,26,14,03,11.20
2018,11,26,14,04,11.20
2018,11,26,14,05,11.20
2018,11,26,14,06,11.20
2018,11,26,14,07,11.20
2018,11,26,14,08,11.20
2018,11,26,14,09,11.20
2018,11,26,14,10,11.20
2018,11,26,14,11,11.20
2018,11,26,14,12,11.20
2018,11,26,14,13,11.20
2018,11,26,14,14,11.20
2018,11,26,14,15,11.20
2018,11,26,14,16,11.20
2018,11,26,14,17,11.20
2018,11,26,14,18,11.20
2018,11,26,14,19,11.20
2018,11,26,14,20,11.20
2018,11,26,14,21,11.20
2018,11,26,14,22,11.20
2018,11,26,14,23,11.20
2018,11,26,14,24,11.20
2018,11,26,14,25,11.20
2018,11,26,14,26,11.20
2018,11,26,14,27,11.20
2018,11,26,14,28,11.20
2018,11,26,14,29,11.20
2018,11,26,14,30,11.20
2018,11,26,14,31,11.20
2018,11,26,14,32,11.20
2018,11,26,14,33,11.20
2018,11,26,14,34,11.20
2018,11,26,14,35,11.20
2018,11,26,14,36,11.20
2018,11,26,14,37,11.20
2018,11,26,14,38,11.20
2018,11,26,14,39,11.20
2018,11,26,14,40,11.20
2018,11,26,14,41,11.20
2018,11,26,14,42,11.30
2018,11,26,14,43,11.30
2018,11,26,14,44,11.20
2018,11,26,14,45,11.30
2018,11,26,14,46,11.30
2018,11,26,14,47,11.30
2018,11,26,14,48,11.30
2018,11,26,14,49,11.30
2018,11,26,14,50,11.30
2018,11,26,14,51,11.20
2018,11,26,14,52,11.20
2018,11,26,14,53,11.20
2018,11,26,14,54,11.20
2018,11,26,14,55,11.20
2018,11,26,14,56,11.20
2018,11,26,14,57,11.20
2018,11,26,14,58,11.20
2018,11,26,14,59,11.20
2018,11,26,15,00,11.20
2018,11,26,15,01,11.20
2018,11,26,15,02,11.20
2018,11,26,15,03,11.20
2018,11,26,15,04,11.20
2018,11,26,15,05,11.20
2018,11,26,15,06,11.20
2018,11,26,15,07,11.20
2018,11,26,15,08,11.20
2018,11,26,15,09,11.20
2018,11,26,15,10,11.20
2018,11,26,15,11,11.20
2018,11,26,15,12,11.20
2018,11,26,15,13,11.20
2018,11,26,15,14,11.20
2018,11,26,15,15,11.20
2018,11,26,15,16,11.20
2018,11,26,15,17,11.20
2018,11,26,15,18,11.20
2018,11,26,15,19,11.20
2018,11,26,15,20,11.20
2018,11,26,15,21,11.20
2018,11,26,15,22,11.20
2018,11,26,15,23,11.20
2018,11,26,15,24,11.20
2018,11,26,15,25,11.20
2018,11,26,15,26,11.20
2018,11,26,15,27,11.20
2018,11,26,15,28,11.20
2018,11,26,15,29,11.10
2018,11,26,15,30,11.10
2018,11,26,15,31,11.10
2018,11,26,15,32,11.10
2018,11,26,15,33,11.10
2018,11,26,15,34,11.10
2018,11,26,15,35,11.00
2018,11,26,15,36,11.00
2018,11,26,15,37,11.00
2018,11,26,15,38,11.00
2018,11,26,15,39,11.00
2018,11,26,15,40,11.00
2018,11,26,15,41,11.00
2018,11,26,15,42,11.00
2018,11,26,15,43,11.00
2018,11,26,15,44,11.00
2018,11,26,15,45,11.00
2018,11,26,15,46,11.00
2018,11,26,15,47,11.00
2018,11,26,15,48,11.00
2018,11,26,15,49,11.00
2018,11,26,15,50,11.00
2018,11,26,15,51,11.00
2018,11,26,15,52,11.00
2018,11,26,15,53,11.00
2018,11,26,15,54,11.00
2018,11,26,15,55,11.00
2018,11,26,15,56,11.00
2018,11,26,15,57,11.00
2018,11,26,15,58,11.00
2018,11,26,15,59,11.00
2018,11,26,16,00,11.00
2018,11,26,16,01,11.00
2018,11,26,16,02,10.90
2018,11,26,16,03,10.90
2018,11,26,16,04,10.90
2018,11,26,16,05,10.90
2018,11,26,16,06,10.90
2018,11,26,16,07,10.90
2018,11,26,16,08,10.90
2018,11,26,16,09,10.90
2018,11,26,16,10,10.90
2018,11,26,16,11,10.90
2018,11,26,16,12,10.90
2018,11,26,16,13,10.90
2018,11,26,16,14,10.90
2018,11,26,16,15,10.90
2018,11,26,16,16,10.90
2018,11,26,16,17,10.90
2018,11,26,16,18,10.90
2018,11,26,16,19,10.90
2018,11,26,16,20,10.90
2018,11,26,16,21,10.90
2018,11,26,16,22,10.90
2018,11,26,16,23,10.90
2018,11,26,16,24,10.90
2018,11,26,16,25,10.90
2018,11,26,16,26,10.90
2018,11,26,16,27,10.90
2018,11,26,16,28,10.90
2018,11,26,16,29,10.90
2018,11,26,16,30,10.90
2018,11,26,16,31,10.90
2018,11,26,16,32,10.90
2018,11,26,16,33,10.90
2018,11,26,16,34,10.90
2018,11,26,16,35,10.90
2018,11,26,16,36,10.90
2018,11,26,16,37,10.90
2018,11,26,16,38,10.90
2018,11,26,16,39,10.90
2018,11,26,16,40,10.90
2018,11,26,16,41,10.90
2018,11,26,16,42,10.90
2018,11,26,16,43,10.90
2018,11,26,16,44,10.90
2018,11,26,16,45,10.90
2018,11,26,16,46,10.90
2018,11,26,16,47,10.90
2018,11,26,16,48,10.90
2018,11,26,16,49,10.90
2018,11,26,16,50,10.90
2018,11,26,16,51,10.90
2018,11,26,16,52,10.90
2018,11,26,16,53,10.90
2018,11,26,16,54,10.90
2018,11,26,16,55,10.90
2018,11,26,16,56,10.90
2018,11,26,16,57,10.90
2018,11,26,16,58,10.90
2018,11,26,16,59,10.90
2018,11,26,17,00,10.80
2018,11,26,17,01,10.80
2018,11,26,17,02,10.80
2018,11,26,17,03,10.80
2018,11,26,17,04,10.80
2018,11,26,17,05,10.80
2018,11,26,17,06,10.80
2018,11,26,17,07,10.80
2018,11,26,17,08,10.80
2018,11,26,17,09,10.80
2018,11,26,17,10,10.80
2018,11,26,17,11,10.80
2018,11,26,17,12,10.80
2018,11,26,17,13,10.80
2018,11,26,17,14,10.80
2018,11,26,17,15,10.80
2018,11,26,17,16,10.80
2018,11,26,17,17,10.80
2018,11,26,17,18,10.80
2018,11,26,17,19,10.80
2018,11,26,17,20,10.80
2018,11,26,17,21,10.80
2018,11,26,17,22,10.80
2018,11,26,17,23,10.80
2018,11,26,17,24,10.80
2018,11,26,17,25,10.80
2018,11,26,17,26,10.80
2018,11,26,17,27,10.80
2018,11,26,17,28,10.80
2018,11,26,17,29,10.80
2018,11,26,17,30,10.80
2018,11,26,17,31,10.80
2018,11,26,17,32,10.90
2018,11,26,17,33,10.90
2018,11,26,17,34,10.90
2018,11,26,17,35,10.90
2018,11,26,17,36,10.90
2018,11,26,17,37,10.90
2018,11,26,17,38,10.90
2018,11,26,17,39,10.90
2018,11,26,17,40,10.90
2018,11,26,17,41,10.90
2018,11,26,17,42,10.90
2018,11,26,17,43,10.90
2018,11,26,17,44,10.90
2018,11,26,17,45,10.90
2018,11,26,17,46,10.90
2018,11,26,17,47,10.90
2018,11,26,17,48,10.80
2018,11,26,17,49,10.80
2018,11,26,17,50,10.80
2018,11,26,17,51,10.80
2018,11,26,17,52,10.80
2018,11,26,17,53,10.80
2018,11,26,17,54,10.80
2018,11,26,17,55,10.80
2018,11,26,17,56,10.80
2018,11,26,17,57,10.80
2018,11,26,17,58,10.80
2018,11,26,17,59,10.80
2018,11,26,18,00,10.80
2018,11,26,18,01,10.80
2018,11,26,18,02,10.80
2018,11,26,18,03,10.80
2018,11,26,18,04,10.80
2018,11,26,18,05,10.80
2018,11,26,18,06,10.80
2018,11,26,18,07,10.80
2018,11,26,18,08,10.70
2018,11,26,18,09,10.70
2018,11,26,18,10,10.70
2018,11,26,18,11,10.70
2018,11,26,18,12,10.70
2018,11,26,18,13,10.70
2018,11,26,18,14,10.70
2018,11,26,18,15,10.70
2018,11,26,18,16,10.70
2018,11,26,18,17,10.70
2018,11,26,18,18,10.70
2018,11,26,18,19,10.70
2018,11,26,18,20,10.70
2018,11,26,18,21,10.70
2018,11,26,18,22,10.70
2018,11,26,18,23,10.70
2018,11,26,18,24,10.70
2018,11,26,18,25,10.70
2018,11,26,18,26,10.70
2018,11,26,18,27,10.70
2018,11,26,18,28,10.70
2018,11,26,18,29,10.70
2018,11,26,18,30,10.70
2018,11,26,18,31,10.70
2018,11,26,18,32,10.70
2018,11,26,18,33,10.70
2018,11,26,18,34,10.70
2018,11,26,18,35,10.60
2018,11,26,18,36,10.60
2018,11,26,18,37,10.60
2018,11,26,18,38,10.60
2018,11,26,18,39,10.60
2018,11,26,18,40,10.60
2018,11,26,18,41,10.60
2018,11,26,18,42,10.60
2018,11,26,18,43,10.60
2018,11,26,18,44,10.60
2018,11,26,18,45,10.50
2018,11,26,18,46,10.50
2018,11,26,18,47,10.50
2018,11,26,18,48,10.50
2018,11,26,18,49,10.60
2018,11,26,18,50,10.60
2018,11,26,18,51,10.60
2018,11,26,18,52,10.60
2018,11,26,18,53,10.60
2018,11,26,18,54,10.60
2018,11,26,18,55,10.60
2018,11,26,18,56,10.60
2018,11,26,18,57,10.60
2018,11,26,18,58,10.70
2018,11,26,18,59,10.70
2018,11,26,19,00,10.60
2018,11,26,19,01,10.60
2018,11,26,19,02,10.60
2018,11,26,19,03,10.60
2018,11,26,19,04,10.60
2018,11,26,19,05,10.60
2018,11,26,19,06,10.60
2018,11,26,19,07,10.60
2018,11,26,19,08,10.60
2018,11,26,19,09,10.60
2018,11,26,19,10,10.60
2018,11,26,19,11,10.60
2018,11,26,19,12,10.60
2018,11,26,19,13,10.60
2018,11,26,19,14,10.60
2018,11,26,19,15,10.60
2018,11,26,19,16,10.60
2018,11,26,19,17,10.60
2018,11,26,19,18,10.60
2018,11,26,19,19,10.60
2018,11,26,19,20,10.60
2018,11,26,19,21,10.60
2018,11,26,19,22,10.60
2018,11,26,19,23,10.60
2018,11,26,19,24,10.60
2018,11,26,19,25,10.60
2018,11,26,19,26,10.50
2018,11,26,19,27,10.50
2018,11,26,19,28,10.50
2018,11,26,19,29,10.50
2018,11,26,19,30,10.50
2018,11,26,19,31,10.50
2018,11,26,19,32,10.50
2018,11,26,19,33,10.50
2018,11,26,19,34,10.50
2018,11,26,19,35,10.50
2018,11,26,19,36,10.50
2018,11,26,19,37,10.50
2018,11,26,19,38,10.50
2018,11,26,19,39,10.50
2018,11,26,19,40,10.50
2018,11,26,19,41,10.50
2018,11,26,19,42,10.50
2018,11,26,19,43,10.50
2018,11,26,19,44,10.50
2018,11,26,19,45,10.50
2018,11,26,19,46,10.50
2018,11,26,19,47,10.50
2018,11,26,19,48,10.50
2018,11,26,19,49,10.50
2018,11,26,19,50,10.50
2018,11,26,19,51,10.50
2018,11,26,19,52,10.50
2018,11,26,19,53,10.50
2018,11,26,19,54,10.50
2018,11,26,19,55,10.50
2018,11,26,19,56,10.50
2018,11,26,19,57,10.50
2018,11,26,19,58,10.50
2018,11,26,19,59,10.50
2018,11,26,20,00,10.50
2018,11,26,20,01,10.50
2018,11,26,20,02,10.50
2018,11,26,20,03,10.50
2018,11,26,20,04,10.50
2018,11,26,20,05,10.50
2018,11,26,20,06,10.50
2018,11,26,20,07,10.50
2018,11,26,20,08,10.50
2018,11,26,20,09,10.50
2018,11,26,20,10,10.50
2018,11,26,20,11,10.50
2018,11,26,20,12,10.50
2018,11,26,20,13,10.50
2018,11,26,20,14,10.50
2018,11,26,20,15,10.50
2018,11,26,20,16,10.50
2018,11,26,20,17,10.50
2018,11,26,20,18,10.50
2018,11,26,20,19,10.50
2018,11,26,20,20,10.50
2018,11,26,20,21,10.50
2018,11,26,20,22,10.50
2018,11,26,20,23,10.50
2018,11,26,20,24,10.50
2018,11,26,20,25,10.50
2018,11,26,20,26,10.50
2018,11,26,20,27,10.50
2018,11,26,20,28,10.50
2018,11,26,20,29,10.50
2018,11,26,20,30,10.50
2018,11,26,20,31,10.50
2018,11,26,20,32,10.50
2018,11,26,20,33,10.50
2018,11,26,20,34,10.50
2018,11,26,20,35,10.50
2018,11,26,20,36,10.50
2018,11,26,20,37,10.50
2018,11,26,20,38,10.50
2018,11,26,20,39,10.50
2018,11,26,20,40,10.50
2018,11,26,20,41,10.50
2018,11,26,20,42,10.50
2018,11,26,20,43,10.50
2018,11,26,20,44,10.50
2018,11,26,20,45,10.50
2018,11,26,20,46,10.50
2018,11,26,20,47,10.50
2018,11,26,20,48,10.50
2018,11,26,20,49,10.50
2018,11,26,20,50,10.50
2018,11,26,20,51,10.50
2018,11,26,20,52,10.50
2018,11,26,20,53,10.50
2018,11,26,20,54,10.50
2018,11,26,20,55,10.50
2018,11,26,20,56,10.50
2018,11,26,20,57,10.50
2018,11,26,20,58,10.50
2018,11,26,20,59,10.50
2018,11,26,21,00,10.50
2018,11,26,21,01,10.50
2018,11,26,21,02,10.60
2018,11,26,21,03,10.50
2018,11,26,21,04,10.60
2018,11,26,21,05,10.60
2018,11,26,21,06,10.60
2018,11,26,21,07,10.60
2018,11,26,21,08,10.60
2018,11,26,21,09,10.60
2018,11,26,21,10,10.60
2018,11,26,21,11,10.60
2018,11,26,21,12,10.60
2018,11,26,21,13,10.50
2018,11,26,21,14,10.50
2018,11,26,21,15,10.60
2018,11,26,21,16,10.60
2018,11,26,21,17,10.60
2018,11,26,21,18,10.60
2018,11,26,21,19,10.60
2018,11,26,21,20,10.60
2018,11,26,21,21,10.60
2018,11,26,21,22,10.60
2018,11,26,21,23,10.60
2018,11,26,21,24,10.60
2018,11,26,21,25,10.50
2018,11,26,21,26,10.60
2018,11,26,21,27,10.60
2018,11,26,21,28,10.50
2018,11,26,21,29,10.50
2018,11,26,21,30,10.50
2018,11,26,21,31,10.50
2018,11,26,21,32,10.60
2018,11,26,21,33,10.60
2018,11,26,21,34,10.60
2018,11,26,21,35,10.60
2018,11,26,21,36,10.60
2018,11,26,21,37,10.60
2018,11,26,21,38,10.60
2018,11,26,21,39,10.60
2018,11,26,21,40,10.60
2018,11,26,21,41,10.60
2018,11,26,21,42,10.60
2018,11,26,21,43,10.60
2018,11,26,21,44,10.60
2018,11,26,21,45,10.50
2018,11,26,21,46,10.50
2018,11,26,21,47,10.60
2018,11,26,21,48,10.60
2018,11,26,21,49,10.60
2018,11,26,21,50,10.60
2018,11,26,21,51,10.60
2018,11,26,21,52,10.60
2018,11,26,21,53,10.60
2018,11,26,21,54,10.60
2018,11,26,21,55,10.60
2018,11,26,21,56,10.60
2018,11,26,21,57,10.60
2018,11,26,21,58,10.60
2018,11,26,21,59,10.60
2018,11,26,22,00,10.60
2018,11,26,22,01,10.60
2018,11,26,22,02,10.60
2018,11,26,22,03,10.60
2018,11,26,22,04,10.60
2018,11,26,22,05,10.60
2018,11,26,22,06,10.60
2018,11,26,22,07,10.60
2018,11,26,22,08,10.60
2018,11,26,22,09,10.60
2018,11,26,22,10,10.50
2018,11,26,22,11,10.50
2018,11,26,22,12,10.50
2018,11,26,22,13,10.50
2018,11,26,22,14,10.50
2018,11,26,22,15,10.50
2018,11,26,22,16,10.50
2018,11,26,22,17,10.50
2018,11,26,22,18,10.50
2018,11,26,22,19,10.50
2018,11,26,22,20,10.50
2018,11,26,22,21,10.50
2018,11,26,22,22,10.50
2018,11,26,22,23,10.50
2018,11,26,22,24,10.50
2018,11,26,22,25,10.50
2018,11,26,22,26,10.50
2018,11,26,22,27,10.50
2018,11,26,22,28,10.50
2018,11,26,22,29,10.50
2018,11,26,22,30,10.50
2018,11,26,22,31,10.50
2018,11,26,22,32,10.50
2018,11,26,22,33,10.50
2018,11,26,22,34,10.50
2018,11,26,22,35,10.50
2018,11,26,22,36,10.50
2018,11,26,22,37,10.50
2018,11,26,22,38,10.50
2018,11,26,22,39,10.50
2018,11,26,22,40,10.40
2018,11,26,22,41,10.40
2018,11,26,22,42,10.40
2018,11,26,22,43,10.40
2018,11,26,22,44,10.40
2018,11,26,22,45,10.40
2018,11,26,22,46,10.40
2018,11,26,22,47,10.40
2018,11,26,22,48,10.40
2018,11,26,22,49,10.40
2018,11,26,22,50,10.40
2018,11,26,22,51,10.40
2018,11,26,22,52,10.40
2018,11,26,22,53,10.40
2018,11,26,22,54,10.40
2018,11,26,22,55,10.40
2018,11,26,22,56,10.40
2018,11,26,22,57,10.40
2018,11,26,22,58,10.40
2018,11,26,22,59,10.40
2018,11,26,23,00,10.40
2018,11,26,23,01,10.40
2018,11,26,23,02,10.40
2018,11,26,23,03,10.40
2018,11,26,23,04,10.30
2018,11,26,23,05,10.30
2018,11,26,23,06,10.30
2018,11,26,23,07,10.30
2018,11,26,23,08,10.30
2018,11,26,23,09,10.30
2018,11,26,23,10,10.30
2018,11,26,23,11,10.30
2018,11,26,23,12,10.40
2018,11,26,23,13,10.40
2018,11,26,23,14,10.40
2018,11,26,23,15,10.40
2018,11,26,23,16,10.40
2018,11,26,23,17,10.40
2018,11,26,23,18,10.40
2018,11,26,23,19,10.30
2018,11,26,23,20,10.30
2018,11,26,23,21,10.30
2018,11,26,23,22,10.30
2018,11,26,23,23,10.30
2018,11,26,23,24,10.30
2018,11,26,23,25,10.30
2018,11,26,23,26,10.30
2018,11,26,23,27,10.30
2018,11,26,23,28,10.30
2018,11,26,23,29,10.30
2018,11,26,23,30,10.30
2018,11,26,23,31,10.30
2018,11,26,23,32,10.30
2018,11,26,23,33,10.30
2018,11,26,23,34,10.30
2018,11,26,23,35,10.30
2018,11,26,23,36,10.40
2018,11,26,23,37,10.40
2018,11,26,23,38,10.40
2018,11,26,23,39,10.40
2018,11,26,23,40,10.40
2018,11,26,23,41,10.40
2018,11,26,23,42,10.40
2018,11,26,23,43,10.40
2018,11,26,23,44,10.40
2018,11,26,23,45,10.40
2018,11,26,23,46,10.40
2018,11,26,23,47,10.40
2018,11,26,23,48,10.40
2018,11,26,23,49,10.40
2018,11,26,23,50,10.40
2018,11,26,23,51,10.40
2018,11,26,23,52,10.40
2018,11,26,23,53,10.40